KT5AL Weather Reports


time (UTC)temp
C
wind
direction
speed
KPH
gust
KPH
rain 1hr
cm
rain 24hr
cm
rain mn
cm
humidity
%
barometer
mb
20260509174004 27 315 4.8 8.0 0.00 0.00 0.00 62 1007.7
20260509173507 27 360 9.7 12.9 0.00 0.00 0.00 63 1007.7
20260509172505 27 337 11.3 14.5 0.00 0.00 0.00 61 1007.7
20260509172004 27 22 4.8 8.0 0.00 0.00 0.00 64 1007.7
20260509171507 26 360 11.3 14.5 0.00 0.00 0.00 62 1007.7
20260509171030 27 22 11.3 14.5 0.00 0.00 0.00 61 1007.7
20260509170508 26 337 6.4 8.0 0.00 0.00 0.00 61 1008.0
20260509170004 26 315 12.9 14.5 0.00 0.00 0.00 61 1008.0
20260509165507 26 315 11.3 14.5 0.00 0.00 0.00 61 1008.0
20260509165004 26 315 14.5 17.7 0.00 0.00 0.00 59 1008.0
20260509164507 26 315 8.0 9.7 0.00 0.00 0.00 59 1008.3
20260509163505 26 315 14.5 16.1 0.00 0.00 0.00 60 1008.3
20260509163008 26 315 16.1 19.3 0.00 0.00 0.00 60 1008.3
20260509162505 25 315 8.0 11.3 0.00 0.00 0.00 61 1008.3
20260509162003 25 337 9.7 12.9 0.00 0.00 0.00 65 1008.3
20260509161506 25 315 12.9 17.7 0.00 0.00 0.00 62 1008.3
20260509161003 25 337 8.0 11.3 0.00 0.00 0.00 62 1008.3
20260509160507 25 292 14.5 19.3 0.00 0.00 0.00 64 1008.3
20260509160004 25 337 14.5 16.1 0.00 0.00 0.00 62 1008.3
20260509155507 25 315 14.5 16.1 0.00 0.00 0.00 64 1008.3
20260509155004 25 360 9.7 16.1 0.00 0.00 0.00 66 1008.3
20260509154507 25 292 16.1 19.3 0.00 0.00 0.00 64 1008.7
20260509154005 25 292 11.3 14.5 0.00 0.00 0.00 65 1008.7
20260509153508 25 292 16.1 19.3 0.00 0.00 0.00 63 1008.3
20260509153005 25 315 16.1 20.9 0.00 0.00 0.00 67 1008.3
20260509152506 25 292 17.7 20.9 0.00 0.00 0.00 64 1008.7
20260509152003 24 337 12.9 17.7 0.00 0.00 0.00 66 1008.7
20260509151506 24 292 14.5 17.7 0.00 0.00 0.00 63 1009.0
20260509151004 24 292 17.7 20.9 0.00 0.00 0.00 69 1009.0
20260509150008 23 292 17.7 20.9 0.00 0.00 0.00 73 1008.7
20260509145505 23 292 20.9 24.1 0.00 0.00 0.00 68 1008.7
20260509144503 24 292 12.9 16.1 0.00 0.00 0.00 72 1008.7
20260509144006 23 292 16.1 17.7 0.00 0.00 0.00 71 1008.7
20260509143506 23 292 16.1 22.5 0.00 0.00 0.00 70 1009.0
20260509143005 23 292 12.9 17.7 0.00 0.00 0.00 73 1009.0
20260509142504 23 292 17.7 19.3 0.00 0.00 0.00 76 1009.0
20260509141506 23 292 16.1 17.7 0.00 0.00 0.00 81 1009.0
20260509141009 23 292 16.1 19.3 0.00 0.00 0.00 84 1009.0
20260509140532 22 292 16.1 17.7 0.00 0.00 0.00 86 1009.7
20260509140009 22 315 12.9 16.1 0.00 0.00 0.00 89 1009.7
20260509135506 22 315 16.1 19.3 0.00 0.00 0.00 92 1010.0
20260509134504 22 315 9.7 11.3 0.00 0.00 0.00 96 1010.4
20260509134007 22 315 11.3 16.1 0.00 0.00 0.00 97 1010.4
20260509133504 21 315 11.3 14.5 0.00 0.00 0.00 98 1010.4
20260509133007 21 315 12.9 16.1 0.00 0.00 0.00 99 1010.4
20260509132504 21 315 12.9 16.1 0.00 0.00 0.00 99 1010.7
20260509132007 21 292 9.7 12.9 0.00 0.00 0.00 100 1010.7
20260509131507 21 315 12.9 16.1 0.00 0.00 0.00 100 1010.7
20260509131004 20 315 14.5 16.1 0.00 0.00 0.00 100 1010.7
20260509130008 20 337 12.9 16.1 0.00 0.00 0.00 100 1010.7
20260509125505 20 315 12.9 16.1 0.00 0.00 0.00 100 1011.0
20260509125003 20 292 12.9 16.1 0.00 0.00 0.00 100 1011.0
20260509124506 19 292 12.9 16.1 0.00 0.00 0.00 100 1011.0
20260509124004 19 315 9.7 11.3 0.00 0.00 0.00 100 1011.0
20260509123507 19 315 9.7 12.9 0.00 0.00 0.00 100 1011.4
20260509123003 18 315 9.7 12.9 0.00 0.00 0.00 100 1011.4
20260509122506 18 315 11.3 14.5 0.00 0.00 0.00 100 1011.4
20260509122006 18 315 11.3 14.5 0.00 0.00 0.00 100 1011.4
20260509121508 18 315 11.3 14.5 0.00 0.00 0.00 100 1011.7
20260509121005 18 292 11.3 12.9 0.00 0.00 0.00 100 1011.7
20260509120508 18 315 9.7 11.3 0.00 0.00 0.00 100 1011.4
20260509120043 18 292 11.3 14.5 0.00 0.00 0.00 100 1011.4
20260509115506 18 315 11.3 14.5 0.00 0.00 0.00 100 1011.0
20260509115009 18 315 14.5 17.7 0.00 0.00 0.00 100 1011.0
20260509114506 18 292 9.7 11.3 0.00 0.00 0.00 100 1011.4
20260509114003 18 292 12.9 14.5 0.00 0.00 0.00 100 1011.4
20260509113507 18 292 11.3 14.5 0.00 0.00 0.00 100 1011.0
20260509113004 18 292 11.3 12.9 0.00 0.00 0.00 100 1011.0
20260509112507 18 292 11.3 14.5 0.00 0.00 0.00 100 1010.7
20260509112004 18 292 14.5 16.1 0.00 0.00 0.00 100 1010.7
20260509111507 18 315 11.3 12.9 0.00 0.00 0.00 100 1011.0
20260509111005 18 292 12.9 14.5 0.00 0.00 0.00 100 1011.0
20260509110509 18 292 12.9 16.1 0.00 0.00 0.00 100 1011.0
20260509110006 18 270 14.5 16.1 0.00 0.08 0.00 100 1011.0
20260509105509 18 247 16.1 19.3 0.00 0.20 0.00 100 1010.4
20260509105006 18 270 11.3 14.5 0.00 0.23 0.00 100 1010.4
20260509104003 18 315 9.7 14.5 0.00 0.23 0.00 100 1010.4
20260509103506 18 337 11.3 12.9 0.00 0.23 0.00 100 1010.0
20260509103003 19 337 11.3 14.5 0.00 0.23 0.00 100 1010.0
20260509102507 19 360 11.3 16.1 0.00 0.23 0.00 100 1010.4
20260509102003 19 337 11.3 12.9 0.00 0.23 0.00 100 1010.4
20260509101506 19 315 12.9 14.5 0.00 0.23 0.00 100 1010.4
20260509101003 19 315 12.9 16.1 0.00 0.23 0.00 100 1010.4
20260509100007 19 315 8.0 9.7 0.00 0.23 0.00 100 1009.7
20260509095531 19 292 6.4 8.0 0.00 0.23 0.00 100 1009.4
20260509095007 19 292 3.2 6.4 0.00 0.23 0.00 100 1009.4
20260509094504 19 90 1.6 4.8 0.00 0.23 0.00 100 1009.0
20260509094007 20 90 4.8 6.4 0.00 0.23 0.00 100 1009.0
20260509093504 20 67 9.7 12.9 0.00 0.23 0.00 100 1008.3
20260509092508 20 67 19.3 25.7 0.00 0.23 0.00 100 1008.3
20260509092005 20 45 16.1 24.1 0.00 0.23 0.00 100 1008.3
20260509091508 20 45 17.7 29.0 0.00 0.23 0.00 100 1008.0
20260509091005 20 22 12.9 16.1 0.00 0.23 0.00 100 1008.0
20260509090510 20 45 17.7 25.7 0.00 0.23 0.00 100 1008.3
20260509090005 20 45 16.1 24.1 0.00 0.23 0.00 100 1008.3
20260509085508 20 22 16.1 24.1 0.00 0.23 0.00 100 1007.7
20260509085005 20 360 19.3 25.7 0.00 0.23 0.00 100 1007.7
20260509084004 20 22 25.7 35.4 0.00 0.23 0.00 99 1007.7
20260509083508 21 337 20.9 29.0 0.00 0.23 0.00 93 1007.7
20260509083005 21 337 20.9 29.0 0.00 0.23 0.00 92 1007.7
20260509082508 21 337 17.7 22.5 0.00 0.23 0.00 92 1007.7
20260509082005 21 360 16.1 20.9 0.00 0.23 0.00 96 1007.7
20260509081508 21 337 17.7 24.1 0.00 0.23 0.00 99 1007.0
20260509081005 20 225 11.3 14.5 0.00 0.23 0.00 100 1007.0
20260509080508 20 180 14.5 17.7 0.00 0.23 0.00 100 1006.6
20260509080005 21 180 14.5 20.9 0.00 0.23 0.00 100 1006.6
20260509074505 20 157 20.9 29.0 0.00 0.23 0.00 100 1007.7
20260509074008 20 180 17.7 25.7 0.00 0.23 0.00 100 1007.7
20260509073505 20 157 24.1 30.6 0.00 0.23 0.00 100 1008.3
20260509073008 20 202 30.6 40.2 0.00 0.23 0.00 100 1008.3
20260509072505 20 202 16.1 20.9 0.00 0.23 0.00 100 1009.0
20260509072008 20 202 25.7 37.0 0.00 0.23 0.00 100 1009.0
20260509071504 20 202 29.0 37.0 0.00 0.23 0.00 100 1009.4
20260509071007 20 202 27.4 33.8 0.00 0.23 0.00 100 1009.4
20260509070006 20 202 24.1 30.6 0.00 0.23 0.00 100 1009.7
20260509065511 20 202 27.4 35.4 0.00 0.23 0.00 100 1010.4
20260509065006 20 202 22.5 29.0 0.00 0.23 0.00 100 1010.4
20260509064504 20 202 25.7 29.0 0.00 0.23 0.00 100 1010.4
20260509064007 20 202 17.7 24.1 0.00 0.23 0.00 100 1010.4
20260509063504 20 202 16.1 20.9 0.00 0.23 0.00 100 1011.0
20260509063003 19 202 14.5 19.3 0.00 0.23 0.00 100 1011.0
20260509062506 19 202 14.5 17.7 0.00 0.23 0.00 100 1011.7
20260509062003 19 225 14.5 16.1 0.00 0.23 0.00 100 1011.7
20260509061506 19 225 14.5 17.7 0.00 0.23 0.00 100 1011.7
20260509061004 19 202 16.1 16.1 0.00 0.23 0.00 100 1011.7
20260509060507 19 225 17.7 22.5 0.00 0.23 0.00 100 1011.7
20260509060005 19 202 16.1 17.7 0.00 0.23 0.00 100 1011.7
20260509055507 19 225 14.5 16.1 0.00 0.23 0.00 100 1011.7
20260509055005 19 202 12.9 16.1 0.00 0.23 0.00 100 1011.7
20260509054528 19 202 11.3 12.9 0.00 0.23 0.00 100 1011.0
20260509054004 19 202 9.7 11.3 0.00 0.23 0.00 100 1011.0
20260509052511 19 202 6.4 8.0 0.00 0.23 0.00 100 1011.0
20260509052006 20 202 12.9 16.1 0.00 0.23 0.00 100 1011.0
20260509051503 20 180 14.5 16.1 0.00 0.23 0.00 100 1011.7
20260509051006 20 157 9.7 11.3 0.00 0.23 0.00 100 1011.7
20260509050508 20 202 8.0 8.0 0.00 0.23 0.00 100 1011.7
20260509045506 20 315 0.0 3.2 0.00 0.23 0.23 100 1012.4
20260509045003 20 337 9.7 12.9 0.00 0.23 0.23 100 1012.4
20260509044506 20 315 11.3 14.5 0.00 0.23 0.23 100 1012.4
20260509044003 20 337 11.3 14.5 0.00 0.23 0.23 100 1012.4
20260509043506 20 337 22.5 32.2 0.00 0.23 0.23 100 1011.4
20260509043003 20 337 20.9 29.0 0.00 0.23 0.23 100 1011.4
20260509042506 20 337 1.6 8.0 0.00 0.23 0.23 100 1010.7
20260509042008 20 135 6.4 8.0 0.00 0.23 0.23 99 1010.7
20260509041503 20 67 9.7 11.3 0.00 0.23 0.23 99 1010.4
20260509041006 21 67 9.7 9.7 0.00 0.23 0.23 100 1010.4
20260509040503 21 135 6.4 9.7 0.00 0.23 0.23 99 1010.0
20260509040006 21 157 9.7 14.5 0.00 0.23 0.23 99 1010.0
20260509035503 21 157 12.9 17.7 0.00 0.23 0.23 99 1009.7
20260509034505 21 157 14.5 17.7 0.00 0.23 0.23 99 1009.7
20260509034028 21 157 14.5 20.9 0.00 0.23 0.23 99 1009.7
20260509033006 21 157 12.9 14.5 0.00 0.23 0.23 99 1009.7
20260509032507 21 157 12.9 12.9 0.00 0.23 0.23 98 1009.7
20260509032004 21 157 6.4 9.7 0.00 0.23 0.23 98 1009.7
20260509031507 21 112 12.9 19.3 0.00 0.23 0.23 98 1010.0
20260509031004 21 112 14.5 17.7 0.00 0.23 0.23 97 1010.0
20260509030008 21 67 12.9 17.7 0.00 0.23 0.23 97 1010.4
20260509025505 21 67 12.9 16.1 0.00 0.23 0.23 99 1010.4
20260509024503 21 22 12.9 16.1 0.00 0.23 0.23 99 1010.0
20260509024006 20 22 14.5 16.1 0.00 0.23 0.23 98 1010.0
20260509023504 20 22 11.3 16.1 0.00 0.23 0.23 98 1009.4
20260509023004 20 45 9.7 12.9 0.00 0.23 0.23 98 1009.4
20260509022507 20 112 6.4 9.7 0.00 0.23 0.23 97 1008.7
20260509022004 20 135 9.7 14.5 0.00 0.23 0.23 96 1008.7
20260509021507 21 157 8.0 12.9 0.00 0.23 0.23 97 1008.3
20260509021004 21 157 9.7 14.5 0.00 0.23 0.23 96 1008.3
20260509020507 21 135 9.7 14.5 0.00 0.23 0.23 96 1008.0
20260509020005 21 157 16.1 19.3 0.00 0.23 0.23 96 1008.0
20260509015507 21 135 11.3 16.1 0.00 0.23 0.23 95 1008.0
20260509015004 21 157 12.9 16.1 0.00 0.23 0.23 94 1008.0
20260509014507 21 157 16.1 20.9 0.00 0.23 0.23 94 1008.0
20260509014005 21 157 16.1 22.5 0.00 0.23 0.23 92 1008.0
20260509013527 21 157 14.5 17.7 0.00 0.23 0.23 92 1007.7
20260509013004 21 157 14.5 16.1 0.00 0.23 0.23 91 1007.7
20260509012507 22 180 17.7 19.3 0.00 0.23 0.23 90 1007.7
20260509012004 22 157 19.3 22.5 0.00 0.23 0.23 89 1007.7
20260509011507 22 157 16.1 20.9 0.00 0.23 0.23 88 1008.0
20260509011004 22 157 16.1 19.3 0.00 0.23 0.23 87 1008.0
20260509010507 22 157 17.7 19.3 0.00 0.23 0.23 86 1008.0
20260509010006 22 157 14.5 17.7 0.00 0.23 0.23 86 1008.0
20260509005004 22 180 16.1 19.3 0.00 0.23 0.23 85 1007.7
20260509004507 22 157 16.1 19.3 0.00 0.23 0.23 84 1007.7
20260509004004 22 157 14.5 17.7 0.00 0.23 0.23 84 1007.7
20260509003507 22 180 16.1 20.9 0.00 0.23 0.23 83 1007.3
20260509003004 22 157 17.7 24.1 0.00 0.23 0.23 82 1007.3
20260509002507 23 157 20.9 27.4 0.00 0.23 0.23 82 1007.3
20260509002004 23 180 20.9 25.7 0.00 0.23 0.23 81 1007.3
20260509000504 23 180 20.9 29.0 0.00 0.23 0.23 78 1006.6
20260509000007 23 180 22.5 27.4 0.00 0.23 0.23 76 1006.6
20260508235504 23 157 17.7 22.5 0.00 0.23 0.23 76 1007.0
20260508235007 24 157 20.9 25.7 0.00 0.23 0.23 75 1007.0
20260508234504 24 157 14.5 20.9 0.00 0.23 0.23 74 1006.6
20260508234007 24 157 22.5 27.4 0.00 0.23 0.23 73 1006.6
20260508233504 24 180 17.7 22.5 0.00 0.23 0.23 72 1007.0
20260508232505 25 157 16.1 19.3 0.00 0.23 0.23 69 1007.0
20260508232008 24 157 12.9 16.1 0.00 0.23 0.23 69 1007.0
20260508231505 24 180 17.7 20.9 0.00 0.23 0.23 69 1006.6
20260508231008 24 157 22.5 29.0 0.00 0.23 0.23 69 1006.6
20260508230505 25 180 22.5 27.4 0.00 0.23 0.23 67 1006.6
20260508230008 25 157 20.9 25.7 0.00 0.23 0.23 67 1006.6
20260508225505 25 157 16.1 22.5 0.00 0.23 0.23 67 1006.3
20260508224509 25 135 14.5 19.3 0.00 0.23 0.23 67 1006.6
20260508224006 25 157 16.1 25.7 0.00 0.23 0.23 69 1006.6
20260508223503 25 180 19.3 29.0 0.00 0.23 0.23 67 1007.0
20260508223006 25 157 20.9 25.7 0.00 0.23 0.23 67 1007.0
20260508222503 25 157 11.3 19.3 0.00 0.23 0.23 69 1006.6
20260508222006 25 180 19.3 24.1 0.00 0.23 0.23 68 1006.6
20260508221503 25 157 17.7 22.5 0.00 0.23 0.23 68 1006.6
20260508221006 25 202 16.1 17.7 0.00 0.23 0.23 67 1006.6
20260508220511 25 157 17.7 22.5 0.00 0.23 0.23 67 1006.6
20260508220006 25 157 19.3 22.5 0.00 0.23 0.23 66 1006.6
20260508215511 25 157 20.9 27.4 0.00 0.23 0.23 66 1006.6
20260508215006 25 157 9.7 19.3 0.00 0.23 0.23 67 1006.6
20260508214509 25 157 19.3 24.1 0.00 0.23 0.23 66 1007.0
20260508214006 25 157 17.7 20.9 0.00 0.23 0.23 66 1007.0
20260508213004 25 157 14.5 16.1 0.00 0.23 0.23 66 1007.0
20260508212527 25 180 16.1 20.9 0.00 0.23 0.23 65 1007.0
20260508212011 25 157 16.1 19.3 0.00 0.23 0.23 67 1007.0
20260508211007 25 180 19.3 22.5 0.00 0.23 0.23 66 1007.0
20260508210504 25 180 11.3 12.9 0.00 0.23 0.23 66 1007.0
20260508210007 25 157 16.1 20.9 0.00 0.23 0.23 66 1007.0
20260508205504 24 157 17.7 27.4 0.00 0.23 0.23 67 1007.7
20260508205007 24 157 19.3 24.1 0.00 0.23 0.23 66 1007.7
20260508204005 24 157 20.9 25.7 0.00 0.23 0.23 69 1008.3
20260508203009 24 157 24.1 30.6 0.00 0.23 0.23 67 1008.3
20260508202507 24 180 22.5 29.0 0.00 0.23 0.23 66 1009.0
20260508202003 23 180 22.5 29.0 0.00 0.23 0.23 70 1009.0
20260508201506 23 180 22.5 27.4 0.00 0.23 0.23 70 1008.7
20260508201003 23 157 25.7 32.2 0.00 0.23 0.23 67 1008.7
20260508200506 24 180 24.1 27.4 0.00 0.23 0.23 69 1008.7
20260508200003 25 225 22.5 30.6 0.00 0.23 0.23 67 1008.7
20260508195503 25 157 20.9 29.0 0.00 0.23 0.23 66 1009.0
20260508195006 25 157 14.5 22.5 0.00 0.23 0.23 67 1009.0
20260508194508 24 180 19.3 25.7 0.00 0.23 0.23 69 1009.0
20260508194005 24 157 22.5 29.0 0.00 0.23 0.23 68 1009.0
20260508193007 24 180 16.1 22.5 0.00 0.23 0.23 67 1009.0
20260508192031 24 202 19.3 22.5 0.00 0.23 0.23 68 1009.0
20260508191508 24 202 20.9 24.1 0.00 0.23 0.23 67 1009.0
20260508191005 24 180 12.9 16.1 0.00 0.23 0.23 68 1009.0
20260508190508 24 180 19.3 24.1 0.00 0.23 0.23 68 1009.0
20260508190005 24 180 12.9 16.1 0.00 0.23 0.23 69 1009.0
20260508185508 24 157 17.7 20.9 0.00 0.23 0.23 69 1009.7
20260508185005 23 180 16.1 17.7 0.00 0.23 0.23 70 1009.7
20260508184508 23 202 14.5 16.1 0.00 0.23 0.23 70 1009.7
20260508184005 23 157 17.7 22.5 0.00 0.23 0.23 70 1009.7
20260508183508 23 202 19.3 24.1 0.00 0.23 0.23 71 1009.7
20260508183005 23 180 20.9 25.7 0.00 0.23 0.23 71 1009.7
20260508182508 23 180 16.1 22.5 0.00 0.23 0.23 70 1010.0
20260508181506 23 202 6.4 14.5 0.00 0.23 0.23 69 1010.4
20260508181003 23 202 17.7 27.4 0.00 0.23 0.23 71 1010.4
20260508180007 22 157 12.9 17.7 0.00 0.23 0.23 73 1010.4
20260508175005 22 180 14.5 17.7 0.00 0.23 0.23 75 1010.7
20260508174508 22 180 16.1 20.9 0.00 0.23 0.23 73 1011.0